THOR AGENA B DEB, 2092

Orbit data source: Space-Track

THOR AGENA B DEB, 2092 is space debris in LEO originally from a launch on Mon, 29 Nov 1965 UTC launched from the Air Force Western Test Range (AFWTR). Debris objects in space refer to the collection of defunct objects orbiting the Earth. Examples of debris include non-operational satellites, rocket bodies, and fragments generated from explosions, collisions, or faulty payload assembly.

Loading next visibility...
Identifier
2092, 1965-098H
Orbit
LEO
Country
Flag of USUS
Related business
Manufacturer
Unknown
Mission
Spacecraft
Bus & Motor
Unknown
Mass
~1 kg wet, ~1 kg dry
Launch date (UTC)
1965-11-29 (60 years ago)
Launch vehicle
Unknown
Launch site
Air Force Western Test Range (AFWTR)
Object type
Payload
Rocket body
Debris
Shape & HBR
Unknown
Radar Cross Section
Small (<0.1 m²)

Expand to show TLE details & history
Last TLE update: 23 hours ago

TLE from 23 hours ago
0 THOR AGENA B DEB
1 02092U 65098H   25309.41593607  .00000992  00000-0  32553-3 0  9996
2 02092  79.8645 192.0210 1297761 206.0829 146.8907 12.34615314652805
Epoch: 2025-11-05T09:58Z
TLE epoch observation values (Epoch: 2025-11-05T09:58:56.876Z)
Latitude
-0.00009°
Longitude
-2.60492°
Altitude
2,425.86 km
Speed
6.338 km/s
True Right ascension
12h 48m 05s
True Declination
0° 00' 00"
Sunlit
Object was in daylight at epoch
Visualization orbit readout
Latitude
Unknown
Longitude
Unknown
Altitude
Unknown
Speed
Unknown
Apparent Right ascension
Unknown
Apparent Declination
Unknown
Sunlit
N/A
Visualization observer readout
Local Sidereal Time
05:13:54
Azimuth
Unknown
Elevation
Unknown
Doppler factor
Unknown
Orbital elements
Apogee altitude
2,552.815 km
Perigee altitude
501.038 km
Semi-major axis
7,905.064 km
Eccentricity
0.12978
Inclination
79.8645°
RAAN
192.021°
Arg. of periapsis
206.0829°
True anomaly
154.02037°
Mean anomaly
146.8907°
Eccentric anomaly
150.54688°
Mean motion
3.08806 °/min
Orbital period
116.58 mins
BSTAR
0.00032553
Loading maneuver chart data...
Computing Atmospheric mass density...
Loading historical data...
Loading historical data...
Loading historical data...
Loading historical data...
Loading historical data...
Loading historical data...
Loading historical data...

Documentation

Showing up to 5 results
|